This is the latest recevied weather packets stored in our database for station/object DK9XR-14. If no packets are shown the sender has not sent any weather packets the latest 10 day(s).
| Time | Temp. | Humidity | Pressure | Rain* | Wind** | Luminosity | Snow |
|---|---|---|---|---|---|---|---|
| 1777831016 | 22.22° C | 38% | 1013.9 hPa | 0 mm | - | - | - |
| 1777830718 | 22.22° C | 36% | 1014 hPa | 0 mm | - | - | - |
| 1777830416 | 22.78° C | 34% | 1014 hPa | 0 mm | - | - | - |
| 1777830117 | 22.78° C | 32% | 1013.8 hPa | 0 mm | - | - | - |
| 1777829816 | 22.78° C | 29% | 1013.8 hPa | 0 mm | - | - | - |
| 1777829518 | 23.33° C | 29% | 1013.8 hPa | 0 mm | - | - | - |
| 1777829216 | 23.33° C | 29% | 1013.8 hPa | 0 mm | - | - | - |
| 1777828917 | 23.33° C | 29% | 1013.8 hPa | 0 mm | - | - | - |
| 1777828617 | 23.89° C | 28% | 1013.8 hPa | 0 mm | - | - | - |
| 1777828318 | 24.44° C | 28% | 1013.6 hPa | 0 mm | - | - | - |
| 1777828017 | 24.44° C | 31% | 1013.7 hPa | 0 mm | - | - | - |
| 1777827717 | 24.44° C | 30% | 1013.7 hPa | 0 mm | - | - | - |
| 1777827416 | 25° C | 31% | 1013.5 hPa | 0 mm | - | - | - |
| 1777827116 | 25° C | 31% | 1013.7 hPa | 0 mm | - | - | - |
| 1777826816 | 25° C | 30% | 1013.7 hPa | 0 mm | - | - | - |
| 1777826516 | 25° C | 30% | 1013.6 hPa | 0 mm | - | - | - |
| 1777826216 | 25° C | 31% | 1013.7 hPa | 0 mm | - | - | - |
| 1777825917 | 25° C | 31% | 1013.6 hPa | 0 mm | - | - | - |
| 1777825617 | 25° C | 30% | 1013.7 hPa | 0 mm | - | - | - |
| 1777825316 | 25° C | 28% | 1013.7 hPa | 0 mm | - | - | - |
| 1777825016 | 25° C | 29% | 1013.7 hPa | 0 mm | - | - | - |
| 1777824718 | 25° C | 29% | 1013.6 hPa | 0 mm | - | - | - |
| 1777824418 | 25° C | 28% | 1013.5 hPa | 0 mm | - | - | - |
| 1777824116 | 25° C | 28% | 1013.6 hPa | 0 mm | - | - | - |
| 1777823817 | 25° C | 28% | 1013.6 hPa | 0 mm | - | - | - |
* Rain latest hour (hover to see other rain measurements)
** Current wind speed in m/s (hover to see current wind gust speed)